カタログに戻る

FENGYUN 1C DEB

運用中SSO
NORAD 36198·DEBRIS·🇨🇳 China

打ち上げ May 10, 1999 から Taiyuan Satellite Launch Center

Loading…

次のパス (今後24時間)

TLE

経年Source: Space-Track

元期: Sep 8, 2026, 06:53 UTC

1 36198U 99025DTX 26251.28717484  .00001804  00000-0  10168-2 0  9990
2 36198  98.6047 273.5624 0097869  71.4400 289.7372 14.09106839673822

AllMySatでFENGYUN 1C DEBをリアルタイム追跡

Download on the App Store